Location: Alto Pass Reservoir
(37.5801°N, 89.3084°W)
Time: 17:12:43
(UTC+00:00)

Cosmos 2298 Rocket - Pass Details

Date: 10 July 2022
Orbit: 775 x 784 km, 74.0° (Epoch: 18 August)

Event Time Altitude Azimuth Distance (km) Brightness Sun altitude
Rises 09:04:15 0° 329° (NNW) 3,278 7.5 -16.5°
Reaches altitude 10° 09:06:56 10° 318° (NW) 2,345 6.6 -16.2°
Maximum altitude 09:11:24 28° 261° (W) 1,437 5.0 -15.5°
Enters shadow 09:13:00 24° 232° (SW) 1,581 5.0 -15.3°
